Back to Top

Language: 

My Weather Underground Personal Weather Station Historical Data with Graphs...

Delerius Weather Station Historical Data
Daily Summary for September 17, 2017 Units:  Metric    English   Both
« Previous Day
Next Day »
Daily Weekly Monthly Yearly Custom
  High: Low: Average:
Temperature: 17.4 °C 8.7 °C 12.4 °C
Dew Point: 12.6 °C 7.6 °C 10.6 °C
Humidity: 95 % 67 % 89 %
Wind Speed: 17.7 km/h 0 km/h 7.1 km/h
Wind Gust: 38.6 km/h - -
Wind:- - West
Pressure: 1016.8 hPa 1012.8 hPa -
Precipitation: 0.51 mm    
Historical Graphs
 
 
Tabular Data for September 17, 2017
Time Temperature Dew Point Pressure Wind Wind Speed Wind Gust Humidity Rainfall Rate (Hourly) solar Conditions
00:04 8.7 °C 7.6 °C 1013.1 hPa Calm     93 % 0 mm 0 W/m2
00:09 8.7 °C 7.6 °C 1013.1 hPa Calm     93 % 0 mm 0 W/m2
00:14 8.7 °C 7.6 °C 1013.1 hPa Calm   6.4 km/h 93 % 0 mm 0 W/m2
00:19 8.8 °C 7.9 °C 1013.1 hPa NW 1.6 km/h 8 km/h 94 % 0 mm 0 W/m2
00:24 8.8 °C 7.9 °C 1013.1 hPa NW 3.2 km/h 9.7 km/h 94 % 0 mm 0 W/m2
00:29 8.9 °C 8 °C 1013.1 hPa NW 1.6 km/h 9.7 km/h 94 % 0 mm 0 W/m2
00:34 9 °C 8.1 °C 1013.1 hPa Calm   6.4 km/h 94 % 0 mm 0 W/m2
00:39 9.1 °C 8.2 °C 1013.1 hPa Calm   6.4 km/h 94 % 0 mm 0 W/m2
00:44 9.1 °C 8.2 °C 1013.1 hPa Calm   1.6 km/h 94 % 0 mm 0 W/m2
00:49 9 °C 7.9 °C 1013.1 hPa Calm     93 % 0 mm 0 W/m2
00:54 9.1 °C 8.2 °C 1013.1 hPa NW 1.6 km/h 6.4 km/h 94 % 0 mm 0 W/m2
00:59 9.1 °C 8.2 °C 1013.1 hPa NW 1.6 km/h 8 km/h 94 % 0 mm 0 W/m2
01:04 9.2 °C 8.3 °C 1013.1 hPa NW 3.2 km/h 8 km/h 94 % 0 mm 0 W/m2
01:09 9.2 °C 8.3 °C 1013.1 hPa NW 4.8 km/h 9.7 km/h 94 % 0 mm 0 W/m2
01:14 9.2 °C 8.3 °C 1013.1 hPa NW 4.8 km/h 11.3 km/h 94 % 0 mm 0 W/m2
01:19 9.3 °C 8.4 °C 1013.1 hPa NW 4.8 km/h 11.3 km/h 94 % 0 mm 0 W/m2
01:24 9.3 °C 8.4 °C 1013.1 hPa NW 3.2 km/h 9.7 km/h 94 % 0 mm 0 W/m2
01:29 9.4 °C 8.5 °C 1013.1 hPa NW 1.6 km/h 9.7 km/h 94 % 0 mm 0 W/m2
01:34 9.4 °C 8.5 °C 1013.1 hPa NW 1.6 km/h 9.7 km/h 94 % 0 mm 0 W/m2
01:39 9.5 °C 8.6 °C 1013.1 hPa NW 4.8 km/h 9.7 km/h 94 % 0 mm 0 W/m2
01:44 9.6 °C 8.7 °C 1013.1 hPa NW 3.2 km/h 9.7 km/h 94 % 0 mm 0 W/m2
01:49 9.6 °C 8.7 °C 1013.1 hPa NW 1.6 km/h 8 km/h 94 % 0 mm 0 W/m2
01:54 9.6 °C 8.7 °C 1013.1 hPa NW 1.6 km/h 6.4 km/h 94 % 0 mm 0 W/m2
01:59 9.6 °C 8.7 °C 1013.1 hPa NW 1.6 km/h 8 km/h 94 % 0 mm 0 W/m2
02:04 9.6 °C 8.7 °C 1013.1 hPa NW 1.6 km/h 8 km/h 94 % 0 mm 0 W/m2
02:09 9.6 °C 8.7 °C 1013.1 hPa NW 1.6 km/h 9.7 km/h 94 % 0 mm 0 W/m2
02:14 9.6 °C 8.7 °C 1013.1 hPa NW 3.2 km/h 9.7 km/h 94 % 0 mm 0 W/m2
02:19 9.6 °C 8.7 °C 1013.1 hPa NW 1.6 km/h 8 km/h 94 % 0 mm 0 W/m2
02:25 9.6 °C 8.7 °C 1013.1 hPa NW 1.6 km/h 8 km/h 94 % 0 mm 0 W/m2
02:30 9.7 °C 8.9 °C 1013.1 hPa NW 3.2 km/h 8 km/h 95 % 0 mm 0 W/m2
02:35 9.8 °C 9.1 °C 1013.1 hPa NW 3.2 km/h 9.7 km/h 95 % 0 mm 0 W/m2
02:40 9.8 °C 9.1 °C 1013.1 hPa NW 4.8 km/h 11.3 km/h 95 % 0 mm 0 W/m2
02:45 9.9 °C 9.1 °C 1013.1 hPa NW 6.4 km/h 11.3 km/h 95 % 0 mm 0 W/m2
02:50 10 °C 9.2 °C 1013.1 hPa NW 6.4 km/h 11.3 km/h 95 % 0 mm 0 W/m2
02:55 10.1 °C 9.3 °C 1013.1 hPa NW 3.2 km/h 9.7 km/h 95 % 0 mm 0 W/m2
03:00 10.1 °C 9.3 °C 1013.1 hPa NNW 3.2 km/h 11.3 km/h 95 % 0 mm 0 W/m2
03:05 10.1 °C 9.3 °C 1013.1 hPa NW 3.2 km/h 11.3 km/h 95 % 0 mm 0 W/m2
03:10 10.2 °C 9.4 °C 1013.1 hPa NW 1.6 km/h 8 km/h 95 % 0 mm 0 W/m2
03:15 10.2 °C 9.4 °C 1013.1 hPa NW 3.2 km/h 8 km/h 95 % 0 mm 0 W/m2
03:20 10.2 °C 9.4 °C 1012.8 hPa NW 4.8 km/h 11.3 km/h 95 % 0 mm 0 W/m2
03:25 10.2 °C 9.4 °C 1012.8 hPa NW 4.8 km/h 11.3 km/h 95 % 0 mm 0 W/m2
03:30 10.3 °C 9.6 °C 1013.1 hPa NW 4.8 km/h 9.7 km/h 95 % 0 mm 0 W/m2
03:35 10.3 °C 9.6 °C 1012.8 hPa NW 3.2 km/h 9.7 km/h 95 % 0 mm 0 W/m2
03:40 10.3 °C 9.6 °C 1012.8 hPa NW 3.2 km/h 11.3 km/h 95 % 0 mm 0 W/m2
03:45 10.3 °C 9.6 °C 1012.8 hPa NW 3.2 km/h 11.3 km/h 95 % 0 mm 0 W/m2
03:50 10.3 °C 9.6 °C 1012.8 hPa NW 3.2 km/h 9.7 km/h 95 % 0 mm 0 W/m2
03:55 10.3 °C 9.6 °C 1012.8 hPa NW 1.6 km/h 8 km/h 95 % 0 mm 0 W/m2
04:05 10.3 °C 9.6 °C 1013.1 hPa NW 3.2 km/h 9.7 km/h 95 % 0 mm 0 W/m2
04:06 10.3 °C 9.6 °C 1013.1 hPa NW 3.2 km/h 9.7 km/h 95 % 0 mm 0 W/m2
04:11 10.3 °C 9.6 °C 1013.1 hPa NNW 3.2 km/h 14.5 km/h 95 % 0 mm 0 W/m2
04:17 10.4 °C 9.6 °C 1013.1 hPa NNW 3.2 km/h 14.5 km/h 95 % 0 mm 0 W/m2
04:20 10.4 °C 9.6 °C 1013.1 hPa NNW 4.8 km/h 12.9 km/h 95 % 0 mm 0 W/m2
04:22 10.4 °C 9.6 °C 1013.1 hPa NNW 4.8 km/h 12.9 km/h 95 % 0 mm 0 W/m2
04:25 10.5 °C 9.7 °C 1013.1 hPa NNW 4.8 km/h 12.9 km/h 95 % 0 mm 0 W/m2
04:27 10.5 °C 9.7 °C 1013.1 hPa NNW 4.8 km/h 12.9 km/h 95 % 0 mm 0 W/m2
04:32 10.5 °C 9.7 °C 1013.1 hPa North 6.4 km/h 16.1 km/h 95 % 0 mm 0 W/m2
04:37 10.5 °C 9.7 °C 1013.1 hPa North 6.4 km/h 16.1 km/h 95 % 0 mm 0 W/m2
04:42 10.6 °C 9.8 °C 1013.1 hPa NNW 3.2 km/h 12.9 km/h 95 % 0 mm 0 W/m2
04:47 10.6 °C 9.8 °C 1013.1 hPa NNW 1.6 km/h 12.9 km/h 95 % 0 mm 0 W/m2
04:52 10.6 °C 9.8 °C 1013.1 hPa NNW 1.6 km/h 11.3 km/h 95 % 0 mm 0 W/m2
04:57 10.6 °C 9.8 °C 1013.1 hPa NNW 1.6 km/h 11.3 km/h 95 % 0 mm 0 W/m2
05:02 10.6 °C 9.8 °C 1013.1 hPa North 3.2 km/h 12.9 km/h 95 % 0 mm 0 W/m2
05:07 10.6 °C 9.8 °C 1013.1 hPa North 6.4 km/h 12.9 km/h 95 % 0 mm 0 W/m2
05:12 10.6 °C 9.8 °C 1013.1 hPa NNW 6.4 km/h 12.9 km/h 95 % 0 mm 0 W/m2
05:17 10.6 °C 9.8 °C 1013.1 hPa NNW 4.8 km/h 11.3 km/h 95 % 0 mm 0 W/m2
05:22 10.6 °C 9.8 °C 1013.1 hPa NNW 6.4 km/h 11.3 km/h 95 % 0 mm 0 W/m2
05:27 10.6 °C 9.7 °C 1013.1 hPa NNW 6.4 km/h 11.3 km/h 94 % 0 mm 0 W/m2
05:32 10.6 °C 9.7 °C 1013.1 hPa NNW 6.4 km/h 12.9 km/h 94 % 0 mm 0 W/m2
05:37 10.6 °C 9.7 °C 1013.1 hPa North 6.4 km/h 14.5 km/h 94 % 0 mm 0 W/m2
05:42 10.6 °C 9.7 °C 1013.1 hPa North 6.4 km/h 14.5 km/h 94 % 0 mm 0 W/m2
05:47 10.6 °C 9.8 °C 1013.1 hPa North 4.8 km/h 14.5 km/h 95 % 0 mm 0 W/m2
05:53 10.6 °C 9.8 °C 1013.1 hPa North 3.2 km/h 11.3 km/h 95 % 0 mm 0 W/m2
05:58 10.6 °C 9.8 °C 1013.4 hPa NNW 4.8 km/h 11.3 km/h 95 % 0 mm 0 W/m2
06:03 10.6 °C 9.8 °C 1013.4 hPa NNW 4.8 km/h 11.3 km/h 95 % 0 mm 0 W/m2
06:08 10.6 °C 9.8 °C 1013.4 hPa NNW 4.8 km/h 12.9 km/h 95 % 0 mm 0 W/m2
06:13 10.6 °C 9.8 °C 1013.4 hPa NNW 4.8 km/h 12.9 km/h 95 % 0 mm 0 W/m2
06:17 10.6 °C 9.8 °C 1013.4 hPa NNW 4.8 km/h 12.9 km/h 95 % 0 mm 0 W/m2
06:22 10.6 °C 9.8 °C 1013.4 hPa NNW 4.8 km/h 16.1 km/h 95 % 0 mm 0 W/m2
06:27 10.6 °C 9.8 °C 1013.4 hPa NNW 6.4 km/h 16.1 km/h 95 % 0 mm 0 W/m2
06:32 10.6 °C 9.8 °C 1013.4 hPa NNW 4.8 km/h 11.3 km/h 95 % 0 mm 0 W/m2
06:37 10.5 °C 9.7 °C 1013.4 hPa NNW 4.8 km/h 11.3 km/h 95 % 0 mm 0 W/m2
06:42 10.5 °C 9.7 °C 1013.4 hPa North 4.8 km/h 12.9 km/h 95 % 0 mm 0 W/m2
06:47 10.5 °C 9.7 °C 1013.8 hPa NNW 4.8 km/h 12.9 km/h 95 % 0 mm 5 W/m2
06:52 10.5 °C 9.7 °C 1013.8 hPa NNW 4.8 km/h 11.3 km/h 95 % 0 mm 7 W/m2
06:57 10.5 °C 9.7 °C 1013.8 hPa NNW 6.4 km/h 14.5 km/h 95 % 0 mm 11 W/m2
07:02 10.6 °C 9.8 °C 1013.8 hPa NNW 6.4 km/h 14.5 km/h 95 % 0 mm 18 W/m2
07:07 10.6 °C 9.8 °C 1013.8 hPa NNW 4.8 km/h 12.9 km/h 95 % 0 mm 25 W/m2
07:12 10.6 °C 9.8 °C 1013.8 hPa NNW 4.8 km/h 12.9 km/h 95 % 0 mm 33 W/m2
07:17 10.6 °C 9.8 °C 1013.8 hPa NNW 4.8 km/h 12.9 km/h 95 % 0 mm 28 W/m2
07:22 10.7 °C 9.9 °C 1013.8 hPa NNW 4.8 km/h 11.3 km/h 95 % 0 mm 42 W/m2
07:27 10.7 °C 9.9 °C 1013.8 hPa NNW 4.8 km/h 11.3 km/h 95 % 0 mm 44 W/m2
07:32 10.7 °C 9.9 °C 1013.8 hPa NNW 4.8 km/h 9.7 km/h 95 % 0 mm 37 W/m2
07:37 10.8 °C 10.1 °C 1014.1 hPa NNW 3.2 km/h 9.7 km/h 95 % 0 mm 33 W/m2
07:42 10.8 °C 10.1 °C 1014.1 hPa NNW 3.2 km/h 12.9 km/h 95 % 0 mm 35 W/m2
07:47 10.8 °C 10.1 °C 1014.1 hPa NNW 4.8 km/h 12.9 km/h 95 % 0 mm 47 W/m2
07:52 10.8 °C 10.1 °C 1014.1 hPa NNW 6.4 km/h 12.9 km/h 95 % 0 mm 51 W/m2
07:57 10.9 °C 10.1 °C 1014.1 hPa NNW 6.4 km/h 14.5 km/h 95 % 0 mm 74 W/m2
08:02 10.9 °C 10.1 °C 1014.1 hPa NNW 6.4 km/h 14.5 km/h 95 % 0 mm 49 W/m2
08:07 11 °C 10.2 °C 1014.1 hPa NNW 6.4 km/h 11.3 km/h 95 % 0 mm 69 W/m2
08:12 11.1 °C 10.3 °C 1014.1 hPa NNW 4.8 km/h 14.5 km/h 95 % 0 mm 84 W/m2
08:17 11.2 °C 10.4 °C 1014.1 hPa NNW 4.8 km/h 14.5 km/h 95 % 0 mm 167 W/m2
08:22 11.4 °C 10.6 °C 1014.1 hPa NNW 6.4 km/h 14.5 km/h 95 % 0 mm 142 W/m2
08:27 11.6 °C 10.8 °C 1014.4 hPa NNW 6.4 km/h 14.5 km/h 95 % 0 mm 176 W/m2
08:38 11.9 °C 10.9 °C 1014.4 hPa NNW 8 km/h 16.1 km/h 94 % 0 mm 243 W/m2
08:43 12.1 °C 11 °C 1014.4 hPa NNW 9.7 km/h 20.9 km/h 93 % 0 mm 287 W/m2
08:48 12.3 °C 11.1 °C 1014.4 hPa North 11.3 km/h 20.9 km/h 92 % 0 mm 330 W/m2
08:53 12.5 °C 11.2 °C 1014.4 hPa North 9.7 km/h 17.7 km/h 92 % 0 mm 294 W/m2
08:58 12.7 °C 11.3 °C 1014.4 hPa NNW 11.3 km/h 17.7 km/h 91 % 0 mm 265 W/m2
09:03 12.9 °C 11.3 °C 1014.8 hPa North 9.7 km/h 17.7 km/h 90 % 0 mm 448 W/m2
09:08 13.2 °C 11.6 °C 1014.4 hPa North 8 km/h 16.1 km/h 90 % 0 mm 225 W/m2
09:13 13.3 °C 11.3 °C 1014.8 hPa North 6.4 km/h 16.1 km/h 88 % 0 mm 163 W/m2
09:18 13.3 °C 11.5 °C 1014.8 hPa North 4.8 km/h 14.5 km/h 89 % 0 mm 181 W/m2
09:23 13.3 °C 11.3 °C 1014.8 hPa NNE 6.4 km/h 16.1 km/h 88 % 0 mm 475 W/m2
09:28 13.4 °C 11.3 °C 1014.8 hPa NNE 9.7 km/h 16.1 km/h 87 % 0 mm 176 W/m2
09:33 13.4 °C 11.3 °C 1014.8 hPa NE 9.7 km/h 16.1 km/h 87 % 0 mm 255 W/m2
09:38 13.4 °C 11.3 °C 1014.8 hPa NNE 8 km/h 16.1 km/h 87 % 0 mm 135 W/m2
09:43 13.4 °C 11.3 °C 1014.8 hPa NNE 8 km/h 16.1 km/h 87 % 0 mm 200 W/m2
09:48 13.4 °C 11.3 °C 1014.8 hPa NNE 8 km/h 16.1 km/h 87 % 0 mm 287 W/m2
09:53 13.5 °C 11.4 °C 1014.8 hPa North 6.4 km/h 16.1 km/h 87 % 0 mm 142 W/m2
09:58 13.5 °C 11.2 °C 1014.8 hPa NNE 8 km/h 17.7 km/h 86 % 0 mm 97 W/m2
10:03 13.5 °C 11.4 °C 1014.8 hPa NNE 9.7 km/h 17.7 km/h 87 % 0 mm 132 W/m2
10:08 13.5 °C 11.4 °C 1014.8 hPa NNE 8 km/h 17.7 km/h 87 % 0 mm 151 W/m2
10:13 13.5 °C 11.4 °C 1014.8 hPa NNE 6.4 km/h 17.7 km/h 87 % 0 mm 148 W/m2
10:18 13.5 °C 11.4 °C 1014.8 hPa NNE 6.4 km/h 17.7 km/h 87 % 0 mm 232 W/m2
10:23 13.8 °C 11.7 °C 1014.8 hPa NNE 6.4 km/h 16.1 km/h 87 % 0 mm 731 W/m2
10:28 14.2 °C 11.7 °C 1014.8 hPa NNE 9.7 km/h 29 km/h 85 % 0 mm 141 W/m2
10:33 14.1 °C 11.6 °C 1014.8 hPa NNE 11.3 km/h 29 km/h 85 % 0 mm 77 W/m2
10:38 13.7 °C 11.6 °C 1014.8 hPa NNE 12.9 km/h 20.9 km/h 87 % 0 mm 104 W/m2
10:43 13.5 °C 11.6 °C 1014.8 hPa North 11.3 km/h 20.9 km/h 88 % 0 mm 144 W/m2
10:48 13.4 °C 11.6 °C 1014.8 hPa North 8 km/h 19.3 km/h 89 % 0 mm 204 W/m2
10:54 13.4 °C 11.8 °C 1014.8 hPa North 9.7 km/h 17.7 km/h 90 % 0 mm 207 W/m2
10:59 13.4 °C 11.6 °C 1014.8 hPa North 11.3 km/h 17.7 km/h 89 % 0 mm 229 W/m2
11:04 13.4 °C 11.6 °C 1014.8 hPa NNE 11.3 km/h 20.9 km/h 89 % 0 mm 163 W/m2
11:09 13.5 °C 11.7 °C 1014.8 hPa North 12.9 km/h 20.9 km/h 89 % 0 mm 158 W/m2
11:14 13.6 °C 11.7 °C 1014.8 hPa North 12.9 km/h 24.1 km/h 88 % 0 mm 675 W/m2
11:19 13.9 °C 11.9 °C 1014.8 hPa NNE 12.9 km/h 24.1 km/h 88 % 0 mm 338 W/m2
11:24 14.1 °C 12.2 °C 1014.8 hPa North 11.3 km/h 20.9 km/h 88 % 0 mm 290 W/m2
11:29 14.1 °C 11.9 °C 1014.8 hPa North 11.3 km/h 20.9 km/h 87 % 0 mm 160 W/m2
11:34 14.2 °C 12.1 °C 1014.8 hPa North 9.7 km/h 20.9 km/h 87 % 0 mm 847 W/m2
11:39 14.3 °C 12 °C 1014.8 hPa NNE 8 km/h 22.5 km/h 86 % 0 mm 234 W/m2
11:44 14.6 °C 12.1 °C 1014.8 hPa NNE 8 km/h 22.5 km/h 85 % 0 mm 849 W/m2
11:49 14.7 °C 11.8 °C 1014.8 hPa NNE 9.7 km/h 22.5 km/h 83 % 0 mm 125 W/m2
11:54 14.6 °C 11.7 °C 1014.8 hPa North 12.9 km/h 22.5 km/h 83 % 0 mm 153 W/m2
11:59 14.5 °C 11.8 °C 1014.8 hPa North 12.9 km/h 22.5 km/h 84 % 0 mm 837 W/m2
12:04 14.6 °C 11.6 °C 1014.4 hPa NNE 11.3 km/h 22.5 km/h 82 % 0 mm 176 W/m2
12:09 14.8 °C 11.9 °C 1014.4 hPa NNE 9.7 km/h 20.9 km/h 83 % 0 mm 898 W/m2
12:14 15.1 °C 12.2 °C 1014.8 hPa North 9.7 km/h 19.3 km/h 83 % 0 mm 287 W/m2
12:19 15.2 °C 11.9 °C 1014.8 hPa North 12.9 km/h 20.9 km/h 81 % 0 mm 294 W/m2
12:24 15.1 °C 11.9 °C 1014.8 hPa North 11.3 km/h 20.9 km/h 81 % 0 mm 362 W/m2
12:29 15.2 °C 11.8 °C 1014.8 hPa North 11.3 km/h 19.3 km/h 80 % 0 mm 422 W/m2
12:34 15.2 °C 11.8 °C 1014.8 hPa North 11.3 km/h 19.3 km/h 80 % 0 mm 302 W/m2
12:39 15.2 °C 11.8 °C 1014.8 hPa NNE 9.7 km/h 19.3 km/h 80 % 0 mm 383 W/m2
12:44 15.3 °C 11.9 °C 1014.8 hPa NNE 9.7 km/h 20.9 km/h 80 % 0 mm 271 W/m2
12:49 15.4 °C 11.8 °C 1014.8 hPa North 11.3 km/h 20.9 km/h 79 % 0 mm 181 W/m2
12:54 15.3 °C 11.5 °C 1014.8 hPa North 11.3 km/h 22.5 km/h 78 % 0 mm 290 W/m2
12:59 15.3 °C 11.7 °C 1014.8 hPa North 11.3 km/h 22.5 km/h 79 % 0 mm 253 W/m2
13:04 15.3 °C 11.5 °C 1014.4 hPa North 9.7 km/h 22.5 km/h 78 % 0 mm 306 W/m2
13:09 15.6 °C 11.8 °C 1014.4 hPa North 11.3 km/h 20.9 km/h 78 % 0 mm 452 W/m2
13:14 15.8 °C 11.9 °C 1014.4 hPa North 11.3 km/h 22.5 km/h 78 % 0 mm 773 W/m2
13:19 16.1 °C 11.9 °C 1014.4 hPa North 9.7 km/h 22.5 km/h 76 % 0 mm 782 W/m2
13:24 16.4 °C 11.9 °C 1014.4 hPa North 8 km/h 19.3 km/h 75 % 0 mm 554 W/m2
13:26 16.5 °C 11.8 °C 1014.4 hPa NNW 9.7 km/h 16.1 km/h 74 % 0 mm 705 W/m2
13:31 16.9 °C 12 °C 1014.4 hPa NNW 9.7 km/h 20.9 km/h 73 % 0 mm 921 W/m2
13:36 17 °C 11.7 °C 1014.4 hPa North 11.3 km/h 25.7 km/h 71 % 0 mm 721 W/m2
13:41 16.9 °C 11.4 °C 1014.4 hPa North 11.3 km/h 25.7 km/h 70 % 0 mm 162 W/m2
13:46 16.7 °C 11.4 °C 1014.4 hPa North 11.3 km/h 19.3 km/h 71 % 0 mm 179 W/m2
13:51 16.7 °C 11.6 °C 1014.4 hPa North 11.3 km/h 25.7 km/h 72 % 0 mm 733 W/m2
13:56 16.9 °C 11.4 °C 1014.4 hPa North 12.9 km/h 29 km/h 70 % 0 mm 853 W/m2
14:02 16.9 °C 11.2 °C 1014.4 hPa North 12.9 km/h 29 km/h 69 % 0 mm 246 W/m2
14:07 16.8 °C 11.3 °C 1014.1 hPa NNE 11.3 km/h 24.1 km/h 70 % 0 mm 336 W/m2
14:12 16.8 °C 11.3 °C 1014.1 hPa North 11.3 km/h 24.1 km/h 70 % 0 mm 285 W/m2
14:17 16.7 °C 11.4 °C 1014.1 hPa North 12.9 km/h 24.1 km/h 71 % 0 mm 712 W/m2
14:22 16.8 °C 11.5 °C 1014.1 hPa North 12.9 km/h 29 km/h 71 % 0 mm 789 W/m2
14:27 17.2 °C 11.9 °C 1014.1 hPa NNW 12.9 km/h 29 km/h 71 % 0 mm 788 W/m2
14:32 17.2 °C 11.4 °C 1014.1 hPa North 12.9 km/h 25.7 km/h 69 % 0 mm 754 W/m2
14:37 17.4 °C 11.4 °C 1014.1 hPa North 12.9 km/h 24.1 km/h 68 % 0 mm 199 W/m2
14:42 17.2 °C 11.2 °C 1014.1 hPa North 12.9 km/h 25.7 km/h 68 % 0 mm 221 W/m2
14:47 16.9 °C 10.7 °C 1014.4 hPa North 14.5 km/h 25.7 km/h 67 % 0 mm 640 W/m2
14:52 16.9 °C 11.2 °C 1014.1 hPa North 12.9 km/h 25.7 km/h 69 % 0 mm 649 W/m2
14:57 17.2 °C 11.2 °C 1014.1 hPa North 11.3 km/h 20.9 km/h 68 % 0 mm 387 W/m2
15:02 17.3 °C 11.1 °C 1014.4 hPa North 14.5 km/h 25.7 km/h 67 % 0 mm 608 W/m2
15:07 17.3 °C 11.6 °C 1014.4 hPa North 16.1 km/h 30.6 km/h 69 % 0 mm 816 W/m2
15:12 16.9 °C 10.9 °C 1014.4 hPa NNE 17.7 km/h 38.6 km/h 68 % 0 mm 116 W/m2
15:17 16.3 °C 11.1 °C 1014.4 hPa North 17.7 km/h 38.6 km/h 71 % 0 mm 179 W/m2
15:22 15.9 °C 11.3 °C 1014.4 hPa North 14.5 km/h 32.2 km/h 74 % 0 mm 206 W/m2
15:27 15.6 °C 11.9 °C 1014.4 hPa North 12.9 km/h 24.1 km/h 79 % 0 mm 132 W/m2
15:32 15.3 °C 12.2 °C 1014.4 hPa North 11.3 km/h 24.1 km/h 82 % 0 mm 169 W/m2
15:37 15.1 °C 12.2 °C 1014.4 hPa North 11.3 km/h 19.3 km/h 83 % 0 mm 171 W/m2
15:42 14.9 °C 12.2 °C 1014.4 hPa NNW 9.7 km/h 19.3 km/h 84 % 0 mm 192 W/m2
15:47 14.8 °C 12.1 °C 1014.4 hPa North 8 km/h 19.3 km/h 84 % 0 mm 250 W/m2
15:52 14.9 °C 12.2 °C 1014.4 hPa North 8 km/h 19.3 km/h 84 % 0 mm 265 W/m2
15:57 15 °C 12.5 °C 1014.4 hPa NNW 8 km/h 17.7 km/h 85 % 0 mm 195 W/m2
16:02 15.1 °C 12.6 °C 1014.4 hPa NNW 6.4 km/h 16.1 km/h 85 % 0.25 mm 236 W/m2
16:07 15.1 °C 12.6 °C 1014.4 hPa North 8 km/h 19.3 km/h 85 % 0.25 mm 185 W/m2
16:12 14.9 °C 12.2 °C 1014.4 hPa North 11.3 km/h 30.6 km/h 84 % 0.25 mm 185 W/m2
16:17 14.9 °C 12.2 °C 1014.4 hPa North 12.9 km/h 30.6 km/h 84 % 0.25 mm 167 W/m2
16:22 14.7 °C 11.8 °C 1014.8 hPa North 12.9 km/h 25.7 km/h 83 % 0.25 mm 167 W/m2
16:27 14.6 °C 11.9 °C 1014.4 hPa NNW 11.3 km/h 25.7 km/h 84 % 0.25 mm 155 W/m2
16:33 14.6 °C 11.9 °C 1014.8 hPa NNW 8 km/h 17.7 km/h 84 % 0.25 mm 137 W/m2
16:38 14.4 °C 11.9 °C 1014.8 hPa North 8 km/h 17.7 km/h 85 % 0.51 mm 118 W/m2
16:43 14.3 °C 12 °C 1014.8 hPa North 9.7 km/h 24.1 km/h 86 % 0.51 mm 84 W/m2
16:48 14.1 °C 11.9 °C 1014.8 hPa North 11.3 km/h 24.1 km/h 87 % 0.51 mm 74 W/m2
16:53 13.8 °C 11.7 °C 1014.8 hPa North 11.3 km/h 24.1 km/h 87 % 0.51 mm 84 W/m2
16:58 13.3 °C 11.2 °C 1014.8 hPa North 11.3 km/h 22.5 km/h 87 % 0.51 mm 98 W/m2
17:03 13.1 °C 11 °C 1014.8 hPa NNW 9.7 km/h 20.9 km/h 87 % 0.51 mm 127 W/m2
17:08 13.1 °C 11.2 °C 1014.8 hPa NNW 8 km/h 16.1 km/h 88 % 0.51 mm 100 W/m2
17:13 13.1 °C 11.3 °C 1014.8 hPa NW 6.4 km/h 12.9 km/h 89 % 0.51 mm 86 W/m2
17:18 13.1 °C 11.3 °C 1014.8 hPa NW 4.8 km/h 9.7 km/h 89 % 0.51 mm 70 W/m2
17:23 13.2 °C 11.4 °C 1014.8 hPa NNW 4.8 km/h 12.9 km/h 89 % 0.51 mm 62 W/m2
17:28 13.2 °C 11.4 °C 1014.8 hPa NNW 6.4 km/h 14.5 km/h 89 % 0.51 mm 81 W/m2
17:33 13.2 °C 11.6 °C 1014.8 hPa NW 4.8 km/h 14.5 km/h 90 % 0.51 mm 74 W/m2
17:38 13.3 °C 11.7 °C 1014.8 hPa WNW 4.8 km/h 11.3 km/h 90 % 0.25 mm 42 W/m2
17:43 13.3 °C 11.7 °C 1014.8 hPa WNW 4.8 km/h 11.3 km/h 90 % 0.25 mm 33 W/m2
17:48 13.2 °C 11.6 °C 1014.8 hPa NW 4.8 km/h 9.7 km/h 90 % 0 mm 35 W/m2
17:53 13.2 °C 11.6 °C 1014.8 hPa NW 4.8 km/h 11.3 km/h 90 % 0 mm 35 W/m2
17:58 13.1 °C 11.5 °C 1014.8 hPa NW 4.8 km/h 11.3 km/h 90 % 0 mm 74 W/m2
18:03 13.2 °C 11.8 °C 1014.8 hPa NW 4.8 km/h 11.3 km/h 91 % 0 mm 97 W/m2
18:08 13.3 °C 11.9 °C 1015.1 hPa NW 6.4 km/h 16.1 km/h 91 % 0 mm 109 W/m2
18:13 13.3 °C 11.7 °C 1015.1 hPa WNW 8 km/h 16.1 km/h 90 % 0 mm 98 W/m2
18:18 13.4 °C 11.8 °C 1015.1 hPa WNW 8 km/h 14.5 km/h 90 % 0 mm 84 W/m2
18:23 13.3 °C 11.5 °C 1015.1 hPa NW 8 km/h 14.5 km/h 89 % 0 mm 58 W/m2
18:28 13.2 °C 11.4 °C 1015.1 hPa NW 8 km/h 14.5 km/h 89 % 0 mm 30 W/m2
18:33 13.1 °C 11.3 °C 1015.1 hPa WNW 8 km/h 14.5 km/h 89 % 0 mm 37 W/m2
18:38 13 °C 11.2 °C 1015.1 hPa WNW 8 km/h 12.9 km/h 89 % 0 mm 23 W/m2
18:43 12.9 °C 11.3 °C 1015.1 hPa WNW 6.4 km/h 11.3 km/h 90 % 0 mm 16 W/m2
18:48 12.8 °C 11.2 °C 1015.1 hPa NW 6.4 km/h 11.3 km/h 90 % 0 mm 14 W/m2
18:54 12.7 °C 11.1 °C 1015.1 hPa WNW 6.4 km/h 12.9 km/h 90 % 0 mm 14 W/m2
18:59 12.6 °C 11.2 °C 1015.1 hPa WNW 8 km/h 14.5 km/h 91 % 0 mm 11 W/m2
19:04 12.5 °C 11.1 °C 1015.5 hPa WNW 8 km/h 14.5 km/h 91 % 0 mm 7 W/m2
19:09 12.4 °C 10.9 °C 1015.5 hPa NW 8 km/h 12.9 km/h 91 % 0 mm 5 W/m2
19:14 12.3 °C 11.1 °C 1015.5 hPa NW 6.4 km/h 14.5 km/h 92 % 0 mm 0 W/m2
19:19 12.3 °C 11.1 °C 1015.5 hPa NW 6.4 km/h 14.5 km/h 92 % 0 mm 0 W/m2
19:24 12.3 °C 11.1 °C 1015.5 hPa NW 8 km/h 12.9 km/h 92 % 0 mm 0 W/m2
19:34 12.2 °C 10.9 °C 1015.8 hPa WNW 8 km/h 19.3 km/h 92 % 0 mm 0 W/m2
19:39 12.2 °C 10.9 °C 1015.8 hPa WNW 8 km/h 14.5 km/h 92 % 0 mm 0 W/m2
19:44 12.1 °C 10.8 °C 1015.8 hPa NW 6.4 km/h 14.5 km/h 92 % 0 mm 0 W/m2
19:49 12.1 °C 11 °C 1015.8 hPa NW 6.4 km/h 11.3 km/h 93 % 0 mm 0 W/m2
19:54 12.1 °C 10.8 °C 1015.8 hPa NW 6.4 km/h 11.3 km/h 92 % 0 mm 0 W/m2
19:59 12 °C 10.9 °C 1015.8 hPa NW 6.4 km/h 11.3 km/h 93 % 0 mm 0 W/m2
20:04 11.9 °C 10.8 °C 1015.8 hPa WNW 6.4 km/h 11.3 km/h 93 % 0 mm 0 W/m2
20:09 11.9 °C 10.8 °C 1016.1 hPa WNW 6.4 km/h 11.3 km/h 93 % 0 mm 0 W/m2
20:14 11.8 °C 10.7 °C 1016.1 hPa WNW 6.4 km/h 12.9 km/h 93 % 0 mm 0 W/m2
20:19 11.8 °C 10.7 °C 1016.1 hPa WNW 8 km/h 12.9 km/h 93 % 0 mm 0 W/m2
20:24 11.7 °C 10.6 °C 1016.1 hPa WNW 6.4 km/h 11.3 km/h 93 % 0 mm 0 W/m2
20:29 11.7 °C 10.6 °C 1016.1 hPa WNW 8 km/h 12.9 km/h 93 % 0 mm 0 W/m2
20:34 11.7 °C 10.6 °C 1016.5 hPa WNW 8 km/h 12.9 km/h 93 % 0 mm 0 W/m2
20:39 11.7 °C 10.8 °C 1016.5 hPa WNW 8 km/h 12.9 km/h 94 % 0 mm 0 W/m2
20:44 11.7 °C 10.8 °C 1016.5 hPa WNW 8 km/h 11.3 km/h 94 % 0 mm 0 W/m2
20:49 11.7 °C 10.8 °C 1016.5 hPa WNW 8 km/h 12.9 km/h 94 % 0 mm 0 W/m2
20:54 11.7 °C 10.8 °C 1016.5 hPa WNW 8 km/h 12.9 km/h 94 % 0 mm 0 W/m2
20:59 11.7 °C 10.8 °C 1016.5 hPa WNW 8 km/h 12.9 km/h 94 % 0 mm 0 W/m2
21:04 11.7 °C 10.8 °C 1016.5 hPa WNW 6.4 km/h 11.3 km/h 94 % 0 mm 0 W/m2
21:09 11.7 °C 10.8 °C 1016.5 hPa WNW 6.4 km/h 12.9 km/h 94 % 0 mm 0 W/m2
21:14 11.7 °C 10.8 °C 1016.5 hPa NW 4.8 km/h 12.9 km/h 94 % 0 mm 0 W/m2
21:19 11.7 °C 10.8 °C 1016.5 hPa NW 4.8 km/h 11.3 km/h 94 % 0 mm 0 W/m2
21:24 11.7 °C 10.8 °C 1016.5 hPa NW 6.4 km/h 17.7 km/h 94 % 0 mm 0 W/m2
21:29 11.7 °C 10.8 °C 1016.5 hPa NW 8 km/h 17.7 km/h 94 % 0 mm 0 W/m2
21:34 11.7 °C 10.8 °C 1016.5 hPa NW 6.4 km/h 12.9 km/h 94 % 0 mm 0 W/m2
21:39 11.7 °C 10.8 °C 1016.5 hPa NW 6.4 km/h 11.3 km/h 94 % 0 mm 0 W/m2
21:45 11.7 °C 10.8 °C 1016.5 hPa NW 6.4 km/h 12.9 km/h 94 % 0 mm 0 W/m2
21:50 11.7 °C 10.8 °C 1016.5 hPa NW 8 km/h 12.9 km/h 94 % 0 mm 0 W/m2
21:55 11.7 °C 10.8 °C 1016.5 hPa NW 8 km/h 12.9 km/h 94 % 0 mm 0 W/m2
22:00 11.8 °C 10.9 °C 1016.5 hPa NW 8 km/h 12.9 km/h 94 % 0 mm 0 W/m2
22:05 11.8 °C 10.9 °C 1016.5 hPa NW 6.4 km/h 14.5 km/h 94 % 0 mm 0 W/m2
22:10 11.8 °C 10.9 °C 1016.5 hPa NNW 8 km/h 14.5 km/h 94 % 0 mm 0 W/m2
22:15 11.8 °C 10.9 °C 1016.8 hPa NW 8 km/h 12.9 km/h 94 % 0 mm 0 W/m2
22:20 11.8 °C 10.9 °C 1016.8 hPa NW 6.4 km/h 12.9 km/h 94 % 0 mm 0 W/m2
22:25 11.8 °C 10.9 °C 1016.8 hPa NW 6.4 km/h 12.9 km/h 94 % 0 mm 0 W/m2
22:30 11.8 °C 10.9 °C 1016.8 hPa NW 6.4 km/h 12.9 km/h 94 % 0 mm 0 W/m2
22:35 11.8 °C 11 °C 1016.8 hPa NW 4.8 km/h 12.9 km/h 95 % 0 mm 0 W/m2
22:40 11.8 °C 11 °C 1016.8 hPa NW 4.8 km/h 12.9 km/h 95 % 0 mm 0 W/m2
22:45 11.8 °C 11 °C 1016.8 hPa NW 4.8 km/h 12.9 km/h 95 % 0 mm 0 W/m2
22:50 11.8 °C 11 °C 1016.8 hPa NW 4.8 km/h 12.9 km/h 95 % 0 mm 0 W/m2
22:55 11.8 °C 11 °C 1016.8 hPa NW 4.8 km/h 11.3 km/h 95 % 0 mm 0 W/m2
23:00 11.7 °C 10.8 °C 1016.8 hPa NW 4.8 km/h 9.7 km/h 94 % 0 mm 0 W/m2
23:05 11.7 °C 10.8 °C 1016.8 hPa NW 4.8 km/h 9.7 km/h 94 % 0 mm 0 W/m2
23:10 11.7 °C 10.8 °C 1016.8 hPa NW 4.8 km/h 14.5 km/h 94 % 0 mm 0 W/m2
23:15 11.7 °C 10.9 °C 1016.8 hPa NW 6.4 km/h 16.1 km/h 95 % 0 mm 0 W/m2
23:20 11.7 °C 10.9 °C 1016.8 hPa NW 6.4 km/h 16.1 km/h 95 % 0 mm 0 W/m2
23:25 11.7 °C 10.9 °C 1016.8 hPa NW 6.4 km/h 14.5 km/h 95 % 0 mm 0 W/m2
23:30 11.7 °C 10.9 °C 1016.8 hPa NW 4.8 km/h 14.5 km/h 95 % 0 mm 0 W/m2
23:35 11.7 °C 10.9 °C 1016.8 hPa NNW 4.8 km/h 11.3 km/h 95 % 0 mm 0 W/m2
23:40 11.6 °C 10.8 °C 1016.8 hPa NNW 6.4 km/h 12.9 km/h 95 % 0 mm 0 W/m2
23:45 11.6 °C 10.8 °C 1016.8 hPa NNW 6.4 km/h 12.9 km/h 95 % 0 mm 0 W/m2
23:50 11.6 °C 10.8 °C 1016.8 hPa NNW 4.8 km/h 11.3 km/h 95 % 0 mm 0 W/m2
23:55 11.6 °C 10.8 °C 1016.8 hPa NNW 3.2 km/h 9.7 km/h 95 % 0 mm 0 W/m2
Delerius-Weather
Compliments of Weather Underground - 2.25 mb

Data updates at regular intervals.